Weather History for KMRY - October, 2014

Change the Weather History Date:

Wednesday, October 8, 2014

  Actual Average Record
Temperature  
Mean Temperature 62 °F 59 °F  
Max Temperature 69 °F 68 °F 82 °F (1999)
Min Temperature 54 °F 51 °F 45 °F (1948)
Degree Days  
Heating Degree Days 3    
Month to date heating degree days 13  
Since 1 July heating degree days 151  
Cooling Degree Days 0    
Month to date cooling degree days 36  
Year to date cooling degree days 134  
Growing Degree Days 10 (Base 50)    
Moisture  
Dew Point 54 °F    
Average Humidity 82    
Maximum Humidity 100    
Minimum Humidity 63    
Precipitation  
Precipitation 0.00 in - 0.01 in (2004)
Month to date precipitation 0.00  
Year to date precipitation 7.76  
Since 1 July precipitation 0.37  
Sea Level Pressure  
Sea Level Pressure 29.92 in    
Wind  
Wind Speed 3 mph (NW)    
Max Wind Speed 8 mph    
Max Gust Speed 26 mph    
Visibility 5 miles    
Events Fog    
T = Trace of Precipitation, MM = Missing Value Source: NWS Daily Summary

Daily Weather History Graph

Daily Weather History Graph

Search for Another Location

Airport or City:

Trip Planner

Search our weather history database for the weather conditions in past years. The results will help you decide how hot, cold, wet, or windy it might be!

Date:

Astronomy

Oct. 08, 2014 Rise Set
Actual Time 7:08 AM PDT 6:40 PM PDT
Civil Twilight 6:42 AM PDT 7:06 PM PDT
Nautical Twilight 6:12 AM PDT 7:36 PM PDT
Astronomical Twilight 5:42 AM PDT 8:06 PM PDT
Moon 7:00 PM PDT (10/8) 7:20 AM PDT (10/8)
Length of Visible Light 12h 23m
Length of Day
11h 31m
Full, 100% of the Moon is Illuminated
Oct 8
Full
Oct 15
Last Quarter
Oct 23
New
Oct 30
First Quarter
Nov 6
Full

Hourly Weather History & Observations

Time (PDT) Temp. Dew Point Humidity Pressure Visibility Wind Dir Wind Speed Gust Speed Precip Events Conditions
12:15 AM 55.4 °F 53.6 °F 94% 29.91 in 2.0 mi ESE 3.5 mph - N/A   Scattered Clouds
12:18 AM 55.4 °F 53.6 °F 94% 29.91 in 1.0 mi ESE 3.5 mph - N/A   Mist
12:25 AM 55.4 °F 55.4 °F 100% 29.90 in 0.5 mi Calm Calm - N/A Fog Fog
12:54 AM 55.0 °F 54.0 °F 96% 29.94 in 1.0 mi Calm Calm - N/A   Mist
1:09 AM 55.4 °F 53.6 °F 94% 29.90 in 4.0 mi Calm Calm - N/A   Scattered Clouds
1:54 AM 55.0 °F 53.1 °F 93% 29.94 in 10.0 mi Calm Calm - N/A   Partly Cloudy
2:04 AM 55.4 °F 53.6 °F 94% 29.91 in 10.0 mi Calm Calm - N/A   Mostly Cloudy
2:54 AM 57.0 °F 55.0 °F 93% 29.94 in 4.0 mi Calm Calm - N/A   Overcast
3:54 AM 57.9 °F 55.0 °F 90% 29.94 in 9.0 mi Calm Calm - N/A   Overcast
4:54 AM 55.9 °F 53.1 °F 90% 29.93 in 10.0 mi ESE 4.6 mph - N/A   Overcast
5:26 AM 55.4 °F 53.6 °F 94% 29.88 in 3.0 mi NNE 3.5 mph - N/A   Overcast
5:37 AM 55.4 °F 53.6 °F 94% 29.88 in 2.0 mi Calm Calm - N/A   Overcast
5:44 AM 55.4 °F 53.6 °F 94% 29.88 in 1.0 mi Calm Calm - N/A   Overcast
5:51 AM 55.4 °F 53.6 °F 94% 29.89 in 0.5 mi Calm Calm - N/A Fog Fog
5:54 AM 55.0 °F 54.0 °F 96% 29.92 in 0.5 mi Calm Calm - N/A Fog Fog
6:02 AM 53.6 °F 53.6 °F 100% 29.89 in 1.0 mi Calm Calm - N/A   Overcast
6:07 AM 53.6 °F 51.8 °F 94% 29.89 in 3.0 mi Calm Calm - N/A   Overcast
6:20 AM 53.6 °F 53.6 °F 100% 29.89 in 1.5 mi Calm Calm - N/A   Overcast
6:35 AM 53.6 °F 53.6 °F 100% 29.89 in 2.0 mi Calm Calm - N/A   Overcast
6:54 AM 54.0 °F 53.1 °F 97% 29.93 in 1.0 mi South 3.5 mph - N/A   Overcast
7:07 AM 53.6 °F 53.6 °F 100% 29.90 in 3.0 mi Calm Calm - N/A   Overcast
7:13 AM 53.6 °F 53.6 °F 100% 29.90 in 1.5 mi Calm Calm - N/A   Overcast
7:31 AM 53.6 °F 53.6 °F 100% 29.90 in 3.0 mi Calm Calm - N/A   Overcast
7:38 AM 53.6 °F 51.8 °F 94% 29.90 in 1.8 mi Calm Calm - N/A   Overcast
7:47 AM 53.6 °F 51.8 °F 94% 29.91 in 0.2 mi ENE 4.6 mph - N/A Fog Fog
7:54 AM 54.0 °F 53.1 °F 97% 29.94 in 0.2 mi ENE 3.5 mph - N/A Fog Fog
8:46 AM 55.4 °F 53.6 °F 94% 29.91 in 0.5 mi Calm Calm - N/A Fog Fog
8:54 AM 55.0 °F 53.1 °F 93% 29.95 in 1.0 mi Calm Calm - N/A   Overcast
9:04 AM 55.4 °F 53.6 °F 94% 29.92 in 3.0 mi Calm Calm - N/A   Mostly Cloudy
9:18 AM 57.2 °F 53.6 °F 88% 29.92 in 10.0 mi Calm Calm - N/A   Scattered Clouds
9:54 AM 59.0 °F 54.0 °F 83% 29.96 in 7.0 mi WNW 3.5 mph - N/A   Clear
10:14 AM 59.0 °F 53.6 °F 82% 29.94 in 7.0 mi WSW 4.6 mph - N/A   Partly Cloudy
10:31 AM 60.8 °F 53.6 °F 77% 29.93 in 6.0 mi Variable 3.5 mph - N/A   Haze
10:54 AM 61.0 °F 55.0 °F 81% 29.97 in 5.0 mi Variable 3.5 mph - N/A   Haze
11:54 AM 62.1 °F 55.0 °F 78% 29.97 in 4.0 mi WNW 3.5 mph - N/A   Haze
12:54 PM 63.0 °F 55.0 °F 75% 29.96 in 8.0 mi West 6.9 mph - N/A   Clear
1:54 PM 63.0 °F 55.9 °F 78% 29.94 in 10.0 mi Variable 6.9 mph - N/A   Clear
2:03 PM 64.4 °F 55.4 °F 73% 29.90 in 10.0 mi NW 5.8 mph - N/A   Partly Cloudy
2:54 PM 64.9 °F 55.9 °F 73% 29.93 in 10.0 mi Variable 5.8 mph - N/A   Clear
3:54 PM 66.9 °F 55.9 °F 68% 29.91 in 10.0 mi Variable 4.6 mph - N/A   Clear
4:54 PM 66.9 °F 55.9 °F 68% 29.91 in 10.0 mi NW 5.8 mph - N/A   Clear
5:54 PM 66.9 °F 54.0 °F 63% 29.91 in 10.0 mi NW 3.5 mph - N/A   Clear
6:54 PM 64.0 °F 54.0 °F 70% 29.93 in 10.0 mi West 4.6 mph - N/A   Clear
7:54 PM 63.0 °F 54.0 °F 72% 29.94 in 10.0 mi Calm Calm - N/A   Clear
8:54 PM 62.1 °F 55.0 °F 78% 29.95 in 10.0 mi Calm Calm - N/A   Clear
9:54 PM 57.0 °F 51.1 °F 81% 29.96 in 10.0 mi Calm Calm - N/A   Clear
10:54 PM 55.9 °F 51.1 °F 84% 29.96 in 10.0 mi Calm Calm - N/A   Clear
11:02 PM 55.4 °F 51.8 °F 88% 29.93 in 10.0 mi Calm Calm - N/A   Partly Cloudy
11:30 PM 55.4 °F 51.8 °F 88% 29.93 in 10.0 mi Calm Calm - N/A   Mostly Cloudy
11:54 PM 55.9 °F 52.0 °F 87% 29.96 in 10.0 mi Calm Calm - N/A   Scattered Clouds